User: anonymous   Login
Location: Unspecified
(0.0000°N, 0.0000°E)
Time: 22:02:49
(UTC+01:00)
Language:

Ariane 42L R/B - Orbit

View from above orbital plane
View from above orbital plane
View from above satellite
View from above satellite

Ground track
Ground track

The orbit data is extracted from the following two-line orbital elements,

1 26299U 00020B   14351.21501964  .00004676  00000-0  11866-2 0  1283
2 26299 007.5263 000.5313 6059231 139.7239 347.0958 03.94125238182032
Epoch (UTC): 17 December 2014 05:09:37
Eccentricity: 0.6059231
inclination: 7.5263°
perigee height: 293 km
apogee height: 20809 km
right ascension of ascending node: 0.5313°
argument of perigee: 139.7239°
revolutions per day: 3.94125238
mean anomaly at epoch: 347.0958°
orbit number at epoch: 18203

The dashed part of the orbit path shows where the satellite is in the earth's shadow,  

DLR